Regional Weather Roundup
Issued by NWS

Home | Current Version | Previous Version | Text Only | Print | Product List | Glossary On
Versions: 1 2 3 4 5 6 7 8 9 10 11 12 13 14 15 16 17 18 19 20 21 22 23 24 25 26 27 28 29 30 31 32 33 34 35 36 37 38 39 40 41 42 43 44 45 46 47 48 49 50
000
ASUS44 KJAN 252210
RWRMS

MISSISSIPPI HOURLY WEATHER ROUNDUP
NATIONAL WEATHER SERVICE JACKSON MS
400 PM CST SUN JAN 25 2015

NOTE: "FAIR: INDICATES FEW OR NO CLOUDS BELOW 12,000 FEET WITH NO
SIGNIFICANT WEATHER AND/OR OBSTRUCTIONS TO VISIBILITY.

MSZ001>002-007>008-010>013-018>021-025>028-034>036-252300-
NORTHWEST MISSISSIPPI

CITY           SKY/WX    TMP DP  RH WIND       PRES   REMARKS
CLARKSDALE     CLOUDY    55  41  58 W18G28    29.78R
CLEVELAND      CLOUDY    58  42  54 W14G23    29.79R
GREENWOOD      MOSUNNY   59  42  53 W8        29.79R
GREENVILLE     LGT RAIN  60  38  43 W16G23    29.79R
GRENADA        CLOUDY    55  43  62 W8        29.78R
OLIVE BRANCH   PTSUNNY   45  45 100 SW6       29.73F
OXFORD         PTSUNNY   54  39  58 SW8       29.76R
TUNICA         CLOUDY    50  43  76 W10       29.77R
$$

MSZ003>006-009-014>017-022>024-029>033-037>039-252300-
NORTHEAST MISSISSIPPI

CITY           SKY/WX    TMP DP  RH WIND       PRES   REMARKS
COLUMBUS AFB   CLOUDY    60  41  49 W14       29.73R
CORINTH        CLOUDY    55  41  58 W10       29.70R
GOLDN TRIANGLE PTSUNNY   61  39  44 NW12G21   29.73R
STARKVILLE     MOCLDY    61  39  44 W17G26    29.75R
TUPELO         MOSUNNY   58  39  49 W12G23    29.73R
$$

MSZ040-058-252300-
CENTRAL MISSISSIPPI

CITY           SKY/WX    TMP DP  RH WIND       PRES   REMARKS
JACKSON INTL   MOSUNNY   64  39  39 W14G30    29.80R
JACKSON HAWKNS MOSUNNY   64  38  38 W18G30    29.81R
MERIDIAN KEY   PTSUNNY   64  37  36 SW14G20   29.76S
MERIDIAN NAS   MOSUNNY   64  37  36 SW10G17   29.76S
RAYMOND        FAIR      64  59  82 W16G36    29.82R
VICKSBURG      SUNNY     65  36  34 W15G25    29.83R
$$

MSZ059>079-252300-
SOUTH MISSISSIPPI

CITY           SKY/WX    TMP DP  RH WIND       PRES   REMARKS
BROOKHAVEN     FAIR      66  39  37 W16G24    29.83R
HATTIESBURG    SUNNY     67  38  34 SW18G30   29.81F
MCCOMB         SUNNY     67  38  34 SW17      29.82F
NATCHEZ        MOSUNNY   66  39  37 W15G28    29.86R
PINE BELT      SUNNY     66  37  34 SW13G21   29.81F
$$

MSZ080>082-252300-
COASTAL MISSISSIPPI

CITY           SKY/WX    TMP DP  RH WIND       PRES   REMARKS
BAY ST LOUIS   SUNNY     64  34  32 SW12G26   29.89S
BILOXI         SUNNY     61  46  56 SW14      29.87F
PASCAGOULA     SUNNY     60  48  64 SW9G16    29.87F
GULFPORT       SUNNY     63  40  42 SW10G22   29.87F
$$


USA.gov is the U.S. government's official web portal to all federal, state and local government web resources and services.